| time (UTC) | temp C | wind direction | speed KPH | gust KPH | rain 1hr cm | rain 24hr cm | rain mn cm | humidity % | barometer mb |
| 20260506072703 | 7 | 53 | 9.7 | 17.7 | 0.00 | 0.03 | 0.00 | 69 | |
| 20260506071803 | 7 | 20 | 8.0 | 19.3 | 0.00 | 0.03 | 0.00 | 68 | |
| 20260506070903 | 7 | 345 | 3.2 | 9.7 | 0.00 | 0.03 | 0.00 | 71 | |
| 20260506061823 | 5 | 5 | 4.8 | 8.0 | 0.00 | 0.03 | 0.00 | 78 | |
| 20260506060903 | 4 | 12 | 1.6 | 8.0 | 0.00 | 0.03 | 0.00 | 78 | |
| 20260506050903 | 3 | 0 | 0.0 | 0.0 | 0.00 | 0.03 | 0.00 | 81 | |
| 20260506044503 | 3 | 86 | 1.6 | 6.4 | 0.00 | 0.03 | 0.00 | 82 | |
| 20260506043603 | 3 | 86 | 3.2 | 6.4 | 0.00 | 0.03 | 0.00 | 82 | |
| 20260506042703 | 3 | 86 | 0.0 | 1.6 | 0.00 | 0.03 | 0.00 | 82 | |
| 20260506041803 | 3 | 86 | 1.6 | 3.2 | 0.00 | 0.03 | 0.00 | 82 | |
| 20260506040903 | 3 | 86 | 1.6 | 6.4 | 0.00 | 0.03 | 0.00 | 82 | |
| 20260506040003 | 3 | 86 | 3.2 | 6.4 | 0.00 | 0.03 | 0.00 | 82 | |
| 20260506035403 | 3 | 85 | 3.2 | 8.0 | 0.00 | 0.03 | 0.00 | 82 | |
| 20260506034503 | 3 | 87 | 3.2 | 9.7 | 0.00 | 0.03 | 0.00 | 82 | |
| 20260506033624 | 3 | 83 | 6.4 | 11.3 | 0.00 | 0.03 | 0.00 | 82 | |
| 20260506032703 | 3 | 74 | 6.4 | 9.7 | 0.00 | 0.03 | 0.00 | 82 | |
| 20260506031824 | 3 | 81 | 4.8 | 9.7 | 0.00 | 0.03 | 0.00 | 83 | |
| 20260506030903 | 3 | 65 | 6.4 | 11.3 | 0.00 | 0.03 | 0.00 | 83 | |
| 20260506030003 | 3 | 67 | 6.4 | 12.9 | 0.00 | 0.03 | 0.00 | 83 | |
| 20260506025403 | 3 | 69 | 6.4 | 12.9 | 0.00 | 0.03 | 0.00 | 83 | |
| 20260506024503 | 3 | 62 | 6.4 | 11.3 | 0.00 | 0.03 | 0.00 | 84 | |
| 20260506023603 | 3 | 36 | 6.4 | 9.7 | 0.00 | 0.03 | 0.00 | 84 | |
| 20260506022703 | 3 | 43 | 6.4 | 11.3 | 0.00 | 0.03 | 0.00 | 84 | |
| 20260506021803 | 3 | 38 | 6.4 | 12.9 | 0.00 | 0.03 | 0.00 | 84 | |
| 20260506020903 | 3 | 34 | 6.4 | 11.3 | 0.00 | 0.03 | 0.00 | 84 | |
| 20260506020003 | 3 | 22 | 4.8 | 9.7 | 0.00 | 0.03 | 0.00 | 84 | |
| 20260506015404 | 3 | 24 | 4.8 | 8.0 | 0.00 | 0.03 | 0.00 | 84 | |
| 20260506014524 | 3 | 38 | 4.8 | 8.0 | 0.00 | 0.03 | 0.00 | 84 | |
| 20260506013624 | 3 | 41 | 4.8 | 9.7 | 0.00 | 0.03 | 0.00 | 84 | |
| 20260506012703 | 4 | 45 | 6.4 | 9.7 | 0.00 | 0.03 | 0.00 | 83 | |
| 20260506011803 | 4 | 52 | 6.4 | 9.7 | 0.00 | 0.03 | 0.00 | 83 | |
| 20260506010903 | 4 | 41 | 6.4 | 11.3 | 0.00 | 0.03 | 0.00 | 83 | |
| 20260506010024 | 4 | 359 | 4.8 | 8.0 | 0.00 | 0.03 | 0.00 | 83 | |
| 20260506005403 | 4 | 356 | 3.2 | 8.0 | 0.00 | 0.03 | 0.00 | 83 | |
| 20260506004504 | 4 | 43 | 1.6 | 8.0 | 0.00 | 0.03 | 0.00 | 82 | |
| 20260506003603 | 4 | 53 | 3.2 | 8.0 | 0.00 | 0.03 | 0.00 | 82 | |
| 20260506002703 | 4 | 79 | 6.4 | 19.3 | 0.00 | 0.03 | 0.00 | 82 | |
| 20260506001803 | 4 | 73 | 8.0 | 12.9 | 0.00 | 0.03 | 0.00 | 82 | |
| 20260506000924 | 4 | 72 | 6.4 | 17.7 | 0.00 | 0.03 | 0.00 | 82 | |
| 20260506000024 | 5 | 65 | 6.4 | 19.3 | 0.00 | 0.03 | 0.00 | 81 | |
| 20260505235403 | 5 | 64 | 6.4 | 12.9 | 0.00 | 0.03 | 0.00 | 81 | |
| 20260505234503 | 5 | 64 | 8.0 | 12.9 | 0.00 | 0.03 | 0.00 | 81 | |
| 20260505233623 | 5 | 67 | 8.0 | 16.1 | 0.00 | 0.03 | 0.00 | 82 | |
| 20260505232703 | 5 | 73 | 9.7 | 17.7 | 0.00 | 0.03 | 0.00 | 81 | |
| 20260505231823 | 5 | 69 | 8.0 | 17.7 | 0.00 | 0.03 | 0.00 | 81 | |
| 20260505230902 | 5 | 70 | 8.0 | 20.9 | 0.00 | 0.03 | 0.00 | 81 | |
| 20260505230002 | 5 | 69 | 9.7 | 19.3 | 0.00 | 0.03 | 0.00 | 81 | |
| 20260505225402 | 5 | 66 | 8.0 | 17.7 | 0.00 | 0.03 | 0.03 | 81 | |
| 20260505224502 | 5 | 54 | 11.3 | 22.5 | 0.00 | 0.03 | 0.03 | 81 | |
| 20260505223623 | 5 | 69 | 8.0 | 19.3 | 0.00 | 0.03 | 0.03 | 82 | |
| 20260505222723 | 5 | 63 | 6.4 | 12.9 | 0.00 | 0.03 | 0.03 | 82 | |
| 20260505221802 | 5 | 43 | 6.4 | 11.3 | 0.00 | 0.03 | 0.03 | 81 | |
| 20260505220902 | 5 | 54 | 6.4 | 16.1 | 0.00 | 0.03 | 0.03 | 81 | |
| 20260505220002 | 5 | 70 | 6.4 | 19.3 | 0.00 | 0.03 | 0.03 | 81 | |
| 20260505215423 | 5 | 64 | 11.3 | 27.4 | 0.00 | 0.03 | 0.03 | 81 | |
| 20260505214502 | 5 | 61 | 14.5 | 25.7 | 0.00 | 0.03 | 0.03 | 81 | |
| 20260505213602 | 5 | 50 | 8.0 | 25.7 | 0.00 | 0.03 | 0.03 | 81 | |
| 20260505212702 | 5 | 64 | 11.3 | 25.7 | 0.00 | 0.03 | 0.03 | 81 | |
| 20260505211802 | 5 | 58 | 12.9 | 27.4 | 0.00 | 0.03 | 0.03 | 81 | |
| 20260505210902 | 5 | 58 | 16.1 | 30.6 | 0.00 | 0.03 | 0.03 | 81 | |
| 20260505210002 | 5 | 71 | 14.5 | 30.6 | 0.00 | 0.03 | 0.03 | 80 | |
| 20260505205423 | 5 | 70 | 16.1 | 27.4 | 0.00 | 0.03 | 0.03 | 80 | |
| 20260505204502 | 5 | 67 | 17.7 | 30.6 | 0.00 | 0.03 | 0.03 | 80 | |
| 20260505203602 | 5 | 76 | 14.5 | 25.7 | 0.00 | 0.03 | 0.03 | 79 | |
| 20260505202702 | 6 | 76 | 14.5 | 25.7 | 0.00 | 0.03 | 0.03 | 79 | |
| 20260505201802 | 6 | 74 | 14.5 | 32.2 | 0.00 | 0.03 | 0.03 | 78 | |
| 20260505200902 | 6 | 65 | 16.1 | 29.0 | 0.00 | 0.03 | 0.03 | 78 | |
| 20260505200002 | 6 | 65 | 19.3 | 30.6 | 0.00 | 0.03 | 0.03 | 78 | |
| 20260505195402 | 6 | 69 | 17.7 | 30.6 | 0.00 | 0.03 | 0.03 | 78 | |
| 20260505194523 | 6 | 65 | 14.5 | 29.0 | 0.00 | 0.03 | 0.03 | 78 | |
| 20260505193602 | 6 | 62 | 17.7 | 32.2 | 0.00 | 0.03 | 0.03 | 78 | |
| 20260505192702 | 6 | 68 | 16.1 | 32.2 | 0.00 | 0.03 | 0.03 | 77 | |
| 20260505191802 | 6 | 70 | 17.7 | 32.2 | 0.00 | 0.03 | 0.03 | 77 | |
| 20260505190902 | 7 | 70 | 17.7 | 32.2 | 0.00 | 0.03 | 0.03 | 76 | |
| 20260505190002 | 7 | 67 | 22.5 | 38.6 | 0.00 | 0.03 | 0.03 | 76 | |
| 20260505185402 | 7 | 70 | 20.9 | 38.6 | 0.00 | 0.03 | 0.03 | 76 | |
| 20260505184502 | 7 | 70 | 14.5 | 30.6 | 0.00 | 0.03 | 0.03 | 75 | |
| 20260505183602 | 7 | 65 | 16.1 | 30.6 | 0.00 | 0.03 | 0.03 | 75 | |
| 20260505182702 | 7 | 64 | 22.5 | 37.0 | 0.00 | 0.03 | 0.03 | 74 | |
| 20260505181802 | 7 | 67 | 20.9 | 38.6 | 0.00 | 0.03 | 0.03 | 74 | |
| 20260505180902 | 7 | 63 | 20.9 | 40.2 | 0.00 | 0.03 | 0.03 | 74 | |
| 20260505180002 | 7 | 53 | 17.7 | 37.0 | 0.00 | 0.03 | 0.03 | 74 | |
| 20260505175402 | 7 | 60 | 20.9 | 37.0 | 0.00 | 0.03 | 0.03 | 73 | |
| 20260505174502 | 8 | 65 | 17.7 | 32.2 | 0.00 | 0.03 | 0.03 | 72 | |
| 20260505173602 | 8 | 66 | 22.5 | 40.2 | 0.00 | 0.03 | 0.03 | 70 | |
| 20260505172723 | 8 | 67 | 19.3 | 35.4 | 0.00 | 0.03 | 0.03 | 71 | |
| 20260505171802 | 8 | 74 | 22.5 | 40.2 | 0.00 | 0.03 | 0.03 | 70 | |
| 20260505170902 | 8 | 68 | 24.1 | 45.1 | 0.00 | 0.03 | 0.03 | 69 | |
| 20260505170002 | 8 | 68 | 24.1 | 38.6 | 0.00 | 0.03 | 0.03 | 70 | |
| 20260505165402 | 8 | 64 | 19.3 | 38.6 | 0.00 | 0.03 | 0.03 | 70 | |
| 20260505164502 | 8 | 60 | 22.5 | 38.6 | 0.00 | 0.03 | 0.03 | 71 | |
| 20260505163602 | 8 | 68 | 24.1 | 48.3 | 0.00 | 0.03 | 0.03 | 71 | |
| 20260505162723 | 8 | 68 | 24.1 | 49.9 | 0.00 | 0.03 | 0.03 | 72 | |
| 20260505161802 | 8 | 62 | 22.5 | 38.6 | 0.00 | 0.03 | 0.03 | 72 | |
| 20260505160923 | 8 | 64 | 22.5 | 41.8 | 0.00 | 0.03 | 0.03 | 73 | |
| 20260505152723 | 9 | 65 | 22.5 | 38.6 | 0.00 | 0.03 | 0.03 | 75 | |
| 20260505151802 | 9 | 60 | 24.1 | 40.2 | 0.00 | 0.03 | 0.03 | 74 | |
| 20260505150902 | 8 | 52 | 22.5 | 35.4 | 0.00 | 0.03 | 0.03 | 75 | |
| 20260505124502 | 10 | 45 | 16.1 | 32.2 | 0.00 | 0.00 | 0.00 | 72 | |
| 20260505123603 | 11 | 56 | 11.3 | 32.2 | 0.00 | 0.00 | 0.00 | 71 | |
| 20260505122723 | 11 | 76 | 11.3 | 22.5 | 0.00 | 0.00 | 0.00 | 70 | |
| 20260505121803 | 11 | 91 | 11.3 | 25.7 | 0.00 | 0.00 | 0.00 | 69 | |
| 20260505120923 | 11 | 110 | 6.4 | 17.7 | 0.00 | 0.00 | 0.00 | 74 | |
| 20260505120003 | 10 | 111 | 4.8 | 12.9 | 0.00 | 0.00 | 0.00 | 78 | |
| 20260505115402 | 10 | 87 | 6.4 | 12.9 | 0.00 | 0.00 | 0.00 | 77 | |
| 20260505114502 | 10 | 343 | 8.0 | 17.7 | 0.00 | 0.00 | 0.00 | 77 | |
| 20260505113603 | 10 | 263 | 8.0 | 12.9 | 0.00 | 0.00 | 0.00 | 75 | |
| 20260505112703 | 10 | 269 | 9.7 | 12.9 | 0.00 | 0.00 | 0.00 | 76 | |
| 20260505111802 | 10 | 274 | 8.0 | 11.3 | 0.00 | 0.00 | 0.00 | 73 | |
| 20260505110903 | 11 | 339 | 3.2 | 11.3 | 0.00 | 0.00 | 0.00 | 77 | |
| 20260505101802 | 11 | 314 | 4.8 | 11.3 | 0.00 | 0.00 | 0.00 | 72 | |
| 20260505100903 | 11 | 276 | 6.4 | 16.1 | 0.00 | 0.00 | 0.00 | 73 | |
| 20260505100024 | 11 | 285 | 8.0 | 17.7 | 0.00 | 0.00 | 0.00 | 74 | |
| 20260505095403 | 10 | 284 | 6.4 | 19.3 | 0.00 | 0.00 | 0.00 | 77 | |
| 20260505094503 | 10 | 298 | 8.0 | 16.1 | 0.00 | 0.00 | 0.00 | 80 | |
| 20260505093602 | 10 | 266 | 6.4 | 11.3 | 0.00 | 0.00 | 0.00 | 80 | |
| 20260505092702 | 9 | 275 | 8.0 | 16.1 | 0.00 | 0.00 | 0.00 | 78 | |
| 20260505091802 | 10 | 273 | 4.8 | 11.3 | 0.00 | 0.00 | 0.00 | 79 | |
| 20260505090903 | 10 | 274 | 6.4 | 11.3 | 0.00 | 0.00 | 0.00 | 78 | |
| 20260505090005 | 10 | 264 | 4.8 | 11.3 | 0.00 | 0.00 | 0.00 | 83 | |
| 20260505085423 | 9 | 249 | 4.8 | 11.3 | 0.00 | 0.00 | 0.00 | 83 | |
| 20260505084503 | 8 | 233 | 8.0 | 12.9 | 0.00 | 0.00 | 0.00 | 82 | |
| 20260505083603 | 8 | 240 | 6.4 | 12.9 | 0.00 | 0.00 | 0.00 | 84 | |
| 20260505082703 | 8 | 244 | 6.4 | 11.3 | 0.00 | 0.00 | 0.00 | 84 | |
| 20260505081803 | 8 | 257 | 6.4 | 12.9 | 0.00 | 0.00 | 0.00 | 85 | |
| 20260505080902 | 8 | 243 | 8.0 | 11.3 | 0.00 | 0.00 | 0.00 | 86 | |
| 20260505080024 | 8 | 238 | 6.4 | 12.9 | 0.00 | 0.00 | 0.00 | 86 | |
| 20260505075403 | 8 | 246 | 4.8 | 8.0 | 0.00 | 0.00 | 0.00 | 86 | |
| 20260505074503 | 8 | 240 | 4.8 | 9.7 | 0.00 | 0.00 | 0.00 | 86 | |
| 20260505073603 | 7 | 238 | 4.8 | 9.7 | 0.00 | 0.00 | 0.00 | 87 |